Volver al catálogo

SL-16 DEB

ActivoLEO
NORAD 22804·DEBRIS·🇷🇺 Russia

Lanzado Sep 16, 1993 desde Baikonur Cosmodrome

Loading…

Próximos Pases (próximas 24 horas)

TLE

ActualizadoSource: Space-Track

Época: Sep 14, 2026, 06:39 UTC

1 22804U 93059C   26257.27776468  .00000085  00000-0  12054-3 0  9999
2 22804  70.9767  10.3005 0208951  13.6170  10.5416 13.72085941651005

Sigue SL-16 DEB en tiempo real con AllMySat

Download on the App Store